Location: Chilton Park
(37.7711°N, 100.0276°W)
Time: 22:25:03
(UTC+00:00)

Cosmos 2227 Rocket - Pass Details

Date: 06 July 2022
Orbit: 840 x 844 km, 71.0° (Epoch: 15 August)

Event Time Altitude Azimuth Distance (km) Brightness Sun altitude
Exits shadow 07:59:18 32° 116° (ESE) 1,407 3.2 -27.1°
Maximum altitude 07:59:53 33° 104° (ESE) 1,387 3.3 -27.0°
Drops below altitude 10° 08:04:52 10° 42° (NE) 2,468 5.5 -26.7°
Sets 08:07:32 0° 33° (NNE) 3,407 6.6 -26.5°
